TimeCST,TemperatureF,Dew PointF,Humidity,Sea Level PressureIn,VisibilityMPH,Wind Direction,Wind SpeedMPH,Gust SpeedMPH,PrecipitationIn,Events,Conditions,WindDirDegrees,DateUTC
3:00 AM,76,75,94,29.89,12,WNW,3.5,,,,Partly Cloudy,300,2013-10-16 09:00:00
5:00 AM,75.2,75.2,100,29.89,6.2,West,2.3,-,N/A,,Mostly Cloudy,270,2013-10-16 11:00:00
6:00 AM,75,74,98,29.92,3,WSW,2.3,,,,Mist,250,2013-10-16 12:00:00
6:00 AM,75.2,75.2,100,29.91,3.1,WSW,2.3,-,N/A,,Mostly Cloudy,250,2013-10-16 12:00:00
6:49 AM,75.2,75.2,100,29.93,1.9,SW,2.3,-,N/A,Rain,Rain,220,2013-10-16 12:49:00
7:00 AM,75.2,75.2,100,29.93,1.9,West,4.6,-,N/A,Rain,Rain Showers,280,2013-10-16 13:00:00
7:19 AM,75.2,75.2,100,2.99,3.1,WNW,6.9,-,N/A,Rain,Light Rain Showers,290,2013-10-16 13:19:00
8:00 AM,77.0,77.0,100,2.99,3.1,NNW,4.6,-,N/A,Rain,Light Rain Showers,340,2013-10-16 14:00:00
8:17 AM,77.0,77.0,100,2.99,1.9,North,5.8,-,N/A,Rain,Light Rain Showers,350,2013-10-16 14:17:00
9:00 AM,79,77,90,29.96,5,North,5.8,,,Rain,Light Rain,350,2013-10-16 15:00:00
9:00 AM,78.8,77.0,94,29.95,5.0,North,5.8,-,N/A,Rain,Light Rain,350,2013-10-16 15:00:00
10:00 AM,80.6,78.8,94,29.94,6.2,North,8.1,-,N/A,,Mostly Cloudy,10,2013-10-16 16:00:00
11:00 AM,80.6,78.8,94,29.93,6.2,North,5.8,-,N/A,,Mostly Cloudy,360,2013-10-16 17:00:00
12:00 PM,84,76,70,29.91,12,NNE,5.8,,,,Partly Cloudy,20,2013-10-16 18:00:00
12:00 PM,84.2,75.2,74,29.90,6.2,NNE,5.8,-,N/A,,Mostly Cloudy,20,2013-10-16 18:00:00
1:00 PM,86.0,77.0,74,29.87,6.2,ENE,4.6,-,N/A,,Scattered Clouds,60,2013-10-16 19:00:00
2:00 PM,86.0,77.0,74,29.85,6.2,ENE,8.1,-,N/A,,Scattered Clouds,60,2013-10-16 20:00:00
3:00 PM,87,76,64,29.84,12,ENE,5.8,,,,Partly Cloudy,70,2013-10-16 21:00:00
3:00 PM,86.0,78.8,79,29.84,6.2,ENE,5.8,-,N/A,,Scattered Clouds,70,2013-10-16 21:00:00
4:00 PM,86.0,77.0,74,29.84,6.2,ENE,9.2,-,N/A,,Scattered Clouds,60,2013-10-16 22:00:00
5:00 PM,84.2,77.0,79,29.85,6.2,East,5.8,-,N/A,,Scattered Clouds,100,2013-10-16 23:00:00
6:00 PM,83,75,72,29.88,14,ENE,3.5,,,,Partly Cloudy,70,2013-10-17 00:00:00
6:00 PM,82.4,75.2,79,29.87,6.2,ENE,3.5,-,N/A,,Scattered Clouds,70,2013-10-17 00:00:00
9:00 PM,82,78,83,29.93,12,East,2.3,,,,Scattered Clouds,80,2013-10-17 03:00:00